Retour au catalogue

STARLINK-5831

ActifCommunicationsVLEO
NORAD 57332·PAYLOAD·🇺🇸 United States

Lancé Jul 16, 2023 depuis Cape Canaveral Space Force Station

Loading…

Prochains Passages (prochaines 24 heures)

TLE

FraisSource: CelesTrak SupGP

Époque: Sep 15, 2026, 02:11 UTC

1 57332C 23099E   26258.09145833 -.00010902  00000+0 -39488-3 0  2585
2 57332  42.9998 262.6873 0001495 264.7201 104.5885 15.27581393    14

Suivez STARLINK-5831 en temps réel avec AllMySat

Download on the App Store